{"data":{"norad_id":60143,"intl_designator":"2024-120J","name":"STARLINK-32027","alt_names":[],"object_type":"PAYLOAD","status":"ACTIVE","operator":null,"country":"US","launch_date":"2024-06-27","launch_site_code":"AFETR","launch_vehicle":null,"mission":null,"orbit_class":"UNKNOWN","rcs_meters":null,"size_class":null,"mass_kg":null,"dimensions":null,"purposes":["comms"],"wikipedia_slug":null,"has_3d_model":false,"image_url":null,"decayed_at":null,"tle_current":{"epoch":"2026-09-21T20:48:33.812928Z","epoch_age_seconds":64138,"freshness":"FRESH","line1":"1 60143U 24120J   26264.86705802 -.00000088  00000+0  85450-5 0  9992","line2":"2 60143  53.1589 124.9847 0001310  84.4105 275.7047 15.34381566126541","mean_motion":15.34381566,"eccentricity":0.000131,"inclination_deg":53.1589,"raan_deg":124.9847,"arg_perigee_deg":84.4105,"mean_anomaly_deg":275.7047,"bstar":8.545e-6,"rev_number":12654,"period_min":93.848885564622,"perigee_km":461.86187323943,"apogee_km":463.65418773742,"semimajor_km":6840.8950304884,"source":"CELESTRAK","updated_at":"2026-09-22T09:00:49.177720Z"}}}